,,,PA_Meas_PMT16A,,PR_Meas_QMR101_102,,RH_Meas_QMH101,,SR_Meas_QMS101,,TA_Meas_QMH101,,GenWind,,GenWind,
date,time,status,PA,status,PR,status,RH,status,SR,status,TA,status,DirAvg,status,SpdAvg,
2008-06-19, 00:00:04,VALID,1011.09,VALID,0,VALID,93.9569,VALID,0,VALID,23.8907,VALID,140,VALID,1.46172,
2008-06-19, 00:01:04,VALID,1011.09,VALID,0,VALID,93.9798,VALID,0,VALID,23.8517,VALID,142,VALID,1.36367,
2008-06-19, 00:02:04,VALID,1011.04,VALID,0.5,VALID,93.7129,VALID,0,VALID,23.8109,VALID,144,VALID,1.95625,
2008-06-19, 00:03:04,VALID,1011.09,VALID,0,VALID,93.812,VALID,0,VALID,23.8322,VALID,167,VALID,1.19414,
2008-06-19, 00:04:04,VALID,1011.04,VALID,0,VALID,93.5451,VALID,0,VALID,23.7932,VALID,155,VALID,1.5582,
2008-06-19, 00:05:04,VALID,1011.03,VALID,0,VALID,93.507,VALID,0,VALID,23.7932,VALID,171,VALID,1.77383,
2008-06-19, 00:06:04,VALID,1011.02,VALID,0,VALID,93.3545,VALID,0,VALID,23.7543,VALID,151,VALID,2.06797,
2008-06-19, 00:07:04,VALID,1011.03,VALID,0,VALID,93.6061,VALID,0,VALID,23.772,VALID,146,VALID,0.952344,
2008-06-19, 00:08:04,VALID,1011.01,VALID,0,VALID,93.3697,VALID,0,VALID,23.7348,VALID,135,VALID,1.45273,
2008-06-19, 00:09:04,VALID,1011.01,VALID,0,VALID,93.4536,VALID,0,VALID,23.733,VALID,153,VALID,1.28125,
2008-06-19, 00:10:04,VALID,1011.02,VALID,0,VALID,93.5299,VALID,0,VALID,23.7348,VALID,175,VALID,0.998438,
2008-06-19, 00:11:04,VALID,1011.03,VALID,0,VALID,93.0952,VALID,0,VALID,23.694,VALID,170,VALID,1.31328,
2008-06-19, 00:12:04,VALID,1010.99,VALID,0,VALID,92.4851,VALID,0,VALID,23.694,VALID,160,VALID,2.39492,
2008-06-19, 00:13:04,VALID,1010.99,VALID,0,VALID,92.5538,VALID,0,VALID,23.7348,VALID,168,VALID,1.78437,
2008-06-19, 00:14:04,VALID,1010.96,VALID,0,VALID,92.4851,VALID,0.105969,VALID,23.7135,VALID,154,VALID,1.77266,
2008-06-19, 00:15:04,VALID,1010.93,VALID,0,VALID,92.6376,VALID,0.105969,VALID,23.6727,VALID,142,VALID,1.18516,
2008-06-19, 00:16:04,VALID,1010.92,VALID,0,VALID,92.3936,VALID,0.105969,VALID,23.6338,VALID,143,VALID,1.57266,
2008-06-19, 00:17:04,VALID,1010.9,VALID,0,VALID,92.5766,VALID,0.105969,VALID,23.6143,VALID,164,VALID,1.23438,
2008-06-19, 00:18:04,VALID,1010.86,VALID,0,VALID,92.7215,VALID,0,VALID,23.5948,VALID,153,VALID,1.28047,
2008-06-19, 00:19:04,VALID,1010.83,VALID,0,VALID,92.2869,VALID,0.105969,VALID,23.6143,VALID,155,VALID,1.73242,
2008-06-19, 00:20:04,VALID,1010.79,VALID,0,VALID,91.8141,VALID,0.105969,VALID,23.6143,VALID,158,VALID,1.7168,
2008-06-19, 00:21:04,VALID,1010.7,VALID,0,VALID,91.6997,VALID,0.105969,VALID,23.6143,VALID,118,VALID,1.66172,
2008-06-19, 00:22:04,VALID,1010.69,VALID,0,VALID,91.8446,VALID,0.105969,VALID,23.6143,VALID,127,VALID,1.34336,
2008-06-19, 00:23:04,VALID,1010.68,VALID,0,VALID,91.9513,VALID,0.105969,VALID,23.5948,VALID,151,VALID,1.24688,
2008-06-19, 00:24:04,VALID,1010.65,VALID,0,VALID,92.5995,VALID,0.105969,VALID,23.5948,VALID,155,VALID,0.735547,
2008-06-19, 00:25:04,VALID,1010.64,VALID,0,VALID,92.7139,VALID,0.105969,VALID,23.5363,VALID,154,VALID,0.992969,
2008-06-19, 00:26:04,VALID,1010.6,VALID,0,VALID,92.4851,VALID,0,VALID,23.4974,VALID,147,VALID,1.07695,
2008-06-19, 00:27:04,VALID,1010.53,VALID,0,VALID,92.2564,VALID,0.105969,VALID,23.4974,VALID,148,VALID,1.00977,
2008-06-19, 00:28:04,VALID,1010.48,VALID,0,VALID,92.63,VALID,0,VALID,23.4992,VALID,146,VALID,0.767187,
2008-06-19, 00:29:04,VALID,1010.43,VALID,0,VALID,92.7902,VALID,0,VALID,23.4602,VALID,162,VALID,0.559766,
2008-06-19, 00:30:04,VALID,1010.4,VALID,0,VALID,92.8817,VALID,0,VALID,23.4407,VALID,137,VALID,0.501562,
2008-06-19, 00:31:04,VALID,1010.36,VALID,0,VALID,92.8588,VALID,0,VALID,23.4212,VALID,110,VALID,0.667188,
2008-06-19, 00:32:04,VALID,1010.37,VALID,0,VALID,92.9046,VALID,0,VALID,23.4212,VALID,126,VALID,0.275391,
2008-06-19, 00:33:04,VALID,1010.37,VALID,0,VALID,93.1486,VALID,0,VALID,23.4212,VALID,135,VALID,0.304297,
2008-06-19, 00:34:04,VALID,1010.37,VALID,0,VALID,93.202,VALID,0,VALID,23.4017,VALID,209,VALID,0.676953,
2008-06-19, 00:35:04,VALID,1010.38,VALID,0,VALID,93.2401,VALID,0,VALID,23.4017,VALID,210,VALID,0.558594,
2008-06-19, 00:36:04,VALID,1010.33,VALID,0,VALID,93.3011,VALID,0,VALID,23.4017,VALID,216,VALID,0.588672,
2008-06-19, 00:37:04,VALID,1010.32,VALID,0,VALID,93.2782,VALID,0,VALID,23.4017,VALID,204,VALID,0.683984,
2008-06-19, 00:38:04,VALID,1010.28,VALID,0,VALID,93.2096,VALID,0,VALID,23.3628,VALID,159,VALID,0.627734,
2008-06-19, 00:39:04,VALID,1010.22,VALID,0,VALID,93.1867,VALID,0,VALID,23.3628,VALID,143,VALID,0.578125,
2008-06-19, 00:40:04,VALID,1010.2,VALID,0,VALID,93.263,VALID,0,VALID,23.3628,VALID,133,VALID,0.603906,
2008-06-19, 00:41:04,VALID,1010.14,VALID,0,VALID,93.1715,VALID,0,VALID,23.3628,VALID,111,VALID,0.753906,
2008-06-19, 00:42:04,VALID,1010.13,VALID,0,VALID,93.3545,VALID,0,VALID,23.4017,VALID,112,VALID,0.582812,
2008-06-19, 00:43:04,VALID,1010.11,VALID,0,VALID,93.2325,VALID,0,VALID,23.4017,VALID,117,VALID,1.13867,
2008-06-19, 00:44:04,VALID,1010.09,VALID,0,VALID,93.2858,VALID,0,VALID,23.4212,VALID,80,VALID,0.682813,
2008-06-19, 00:45:04,VALID,1010.08,VALID,0,VALID,93.4612,VALID,0,VALID,23.4194,VALID,61,VALID,0.665625,
2008-06-19, 00:46:04,VALID,1010.07,VALID,0,VALID,93.5756,VALID,0.105969,VALID,23.4389,VALID,359,VALID,0.651563,
2008-06-19, 00:47:04,VALID,1010.03,VALID,0.5,VALID,93.6366,VALID,0.105969,VALID,23.4,VALID,354,VALID,0.642578,
2008-06-19, 00:48:04,VALID,1010.05,VALID,0,VALID,94.0332,VALID,0.105969,VALID,23.3805,VALID,341,VALID,0.507813,
2008-06-19, 00:49:04,VALID,1010,VALID,0,VALID,94.1094,VALID,0,VALID,23.3805,VALID,341,VALID,0.448438,
2008-06-19, 00:50:04,VALID,1009.96,VALID,0,VALID,94.1628,VALID,0.105969,VALID,23.322,VALID,341,VALID,0.380469,
2008-06-19, 00:51:04,VALID,1009.94,VALID,0,VALID,94.2086,VALID,0.105969,VALID,23.3026,VALID,341,VALID,0.530859,
2008-06-19, 00:52:04,VALID,1009.92,VALID,0,VALID,94.3916,VALID,0.105969,VALID,23.3026,VALID,341,VALID,0.514063,
2008-06-19, 00:53:04,VALID,1009.93,VALID,0,VALID,94.2619,VALID,0.105969,VALID,23.2441,VALID,341,VALID,0.71875,
2008-06-19, 00:54:04,VALID,1009.93,VALID,0,VALID,94.2391,VALID,0.105969,VALID,23.2051,VALID,348,VALID,0.517969,
2008-06-19, 00:55:04,VALID,1009.95,VALID,0,VALID,94.3153,VALID,0.105969,VALID,23.2246,VALID,347,VALID,0.491406,
2008-06-19, 00:56:04,VALID,1009.95,VALID,0,VALID,94.3916,VALID,0,VALID,23.2264,VALID,347,VALID,0.237891,
2008-06-19, 00:57:04,VALID,1009.97,VALID,0,VALID,94.4526,VALID,0.105969,VALID,23.2246,VALID,347,VALID,0.0507813,
2008-06-19, 00:58:04,VALID,1009.97,VALID,0,VALID,94.506,VALID,0.105969,VALID,23.2246,VALID,347,VALID,0,
2008-06-19, 00:59:04,VALID,1009.95,VALID,0,VALID,94.6203,VALID,0,VALID,23.2264,VALID,347,VALID,0,
2008-06-19, 01:00:04,VALID,1009.94,VALID,0,VALID,94.7119,VALID,0,VALID,23.2459,VALID,347,VALID,0,
2008-06-19, 01:01:04,VALID,1009.95,VALID,0,VALID,94.7576,VALID,0,VALID,23.2848,VALID,355,VALID,0.260156,
2008-06-19, 01:02:04,VALID,1009.95,VALID,0,VALID,94.75,VALID,0,VALID,23.2654,VALID,51,VALID,0.203516,
2008-06-19, 01:03:04,VALID,1009.95,VALID,0,VALID,94.7347,VALID,0,VALID,23.2654,VALID,51,VALID,0.184375,
2008-06-19, 01:04:04,VALID,1009.96,VALID,0,VALID,94.7957,VALID,0,VALID,23.3061,VALID,51,VALID,0.00351562,
2008-06-19, 01:05:04,VALID,1009.97,VALID,0,VALID,94.8262,VALID,0,VALID,23.3043,VALID,51,VALID,0,
2008-06-19, 01:06:04,VALID,1009.95,VALID,0,VALID,94.8339,VALID,0,VALID,23.3061,VALID,51,VALID,0.0574219,
2008-06-19, 01:07:04,VALID,1009.93,VALID,0,VALID,94.8796,VALID,0,VALID,23.3238,VALID,51,VALID,0.194922,
2008-06-19, 01:08:04,VALID,1009.92,VALID,0,VALID,94.8034,VALID,0,VALID,23.2848,VALID,51,VALID,0.312891,
2008-06-19, 01:09:04,VALID,1009.89,VALID,0,VALID,94.7424,VALID,0,VALID,23.2654,VALID,351,VALID,0.573438,
2008-06-19, 01:10:04,VALID,1009.87,VALID,0,VALID,94.8034,VALID,0,VALID,23.3043,VALID,345,VALID,0.458594,
2008-06-19, 01:11:04,VALID,1009.83,VALID,0,VALID,94.6966,VALID,0,VALID,23.2459,VALID,352,VALID,0.640234,
2008-06-19, 01:12:04,VALID,1009.83,VALID,0,VALID,94.75,VALID,0,VALID,23.2264,VALID,19,VALID,0.463672,
2008-06-19, 01:13:04,VALID,1009.8,VALID,0,VALID,94.7652,VALID,0,VALID,23.2476,VALID,37,VALID,0.519922,
2008-06-19, 01:14:04,VALID,1009.82,VALID,0,VALID,94.8339,VALID,0,VALID,23.2264,VALID,93,VALID,0.791797,
2008-06-19, 01:15:04,VALID,1009.83,VALID,0,VALID,94.8644,VALID,0,VALID,23.2264,VALID,99,VALID,1.05586,
2008-06-19, 01:16:04,VALID,1009.84,VALID,0,VALID,94.8491,VALID,0,VALID,23.2476,VALID,99,VALID,1.26406,
2008-06-19, 01:17:04,VALID,1009.85,VALID,0,VALID,94.8339,VALID,0,VALID,23.2459,VALID,97,VALID,1.12891,
2008-06-19, 01:18:04,VALID,1009.88,VALID,0,VALID,94.7957,VALID,0,VALID,23.2848,VALID,102,VALID,1.23516,
2008-06-19, 01:19:04,VALID,1009.9,VALID,0,VALID,94.7881,VALID,0,VALID,23.3433,VALID,90,VALID,0.801172,
2008-06-19, 01:20:04,VALID,1009.94,VALID,0,VALID,94.7424,VALID,0,VALID,23.3433,VALID,98,VALID,0.704297,
2008-06-19, 01:21:04,VALID,1009.94,VALID,0,VALID,94.7042,VALID,0,VALID,23.3433,VALID,92,VALID,0.762109,
2008-06-19, 01:22:04,VALID,1009.93,VALID,0,VALID,94.4907,VALID,0,VALID,23.3451,VALID,81,VALID,0.71875,
2008-06-19, 01:23:04,VALID,1009.9,VALID,0,VALID,94.506,VALID,0,VALID,23.3433,VALID,79,VALID,0.638281,
2008-06-19, 01:24:04,VALID,1009.88,VALID,0,VALID,94.5212,VALID,0,VALID,23.3256,VALID,82,VALID,0.757031,
2008-06-19, 01:25:04,VALID,1009.86,VALID,0,VALID,94.4907,VALID,0,VALID,23.3043,VALID,73,VALID,0.501172,
2008-06-19, 01:26:04,VALID,1009.84,VALID,0,VALID,94.4602,VALID,0,VALID,23.3238,VALID,48,VALID,0.714063,
2008-06-19, 01:27:04,VALID,1009.84,VALID,0,VALID,94.4602,VALID,0,VALID,23.2654,VALID,27,VALID,0.591797,
2008-06-19, 01:28:04,VALID,1009.81,VALID,0,VALID,94.4297,VALID,0,VALID,23.2848,VALID,27,VALID,0.352734,
2008-06-19, 01:29:04,VALID,1009.8,VALID,0,VALID,94.4907,VALID,0.105969,VALID,23.2654,VALID,27,VALID,0.386328,
2008-06-19, 01:30:04,VALID,1009.77,VALID,0,VALID,94.5288,VALID,0.105969,VALID,23.2654,VALID,33,VALID,0.60625,
2008-06-19, 01:31:04,VALID,1009.76,VALID,0,VALID,94.5822,VALID,0.105969,VALID,23.2459,VALID,58,VALID,0.607031,
2008-06-19, 01:32:04,VALID,1009.76,VALID,0,VALID,94.6051,VALID,0.105969,VALID,23.2051,VALID,64,VALID,0.635938,
2008-06-19, 01:33:04,VALID,1009.74,VALID,0,VALID,94.5517,VALID,0.105969,VALID,23.1857,VALID,56,VALID,0.842969,
2008-06-19, 01:34:04,VALID,1009.73,VALID,0,VALID,94.628,VALID,0.105969,VALID,23.1857,VALID,26,VALID,0.633203,
2008-06-19, 01:35:04,VALID,1009.72,VALID,0,VALID,94.6585,VALID,0.105969,VALID,23.1662,VALID,360,VALID,0.673828,
2008-06-19, 01:36:04,VALID,1009.72,VALID,0,VALID,94.7424,VALID,0,VALID,23.1874,VALID,352,VALID,0.455469,
2008-06-19, 01:37:04,VALID,1009.67,VALID,0,VALID,94.7652,VALID,0,VALID,23.1485,VALID,2,VALID,0.213672,
2008-06-19, 01:38:04,VALID,1009.7,VALID,0,VALID,94.8339,VALID,0.105969,VALID,23.1679,VALID,2,VALID,0.071875,
2008-06-19, 01:39:04,VALID,1009.71,VALID,0,VALID,94.8644,VALID,0.105969,VALID,23.1467,VALID,1,VALID,0.259766,
2008-06-19, 01:40:04,VALID,1009.66,VALID,0,VALID,94.9101,VALID,0.105969,VALID,23.1485,VALID,2,VALID,0.260547,
2008-06-19, 01:41:04,VALID,1009.66,VALID,0,VALID,94.9788,VALID,0.105969,VALID,23.1272,VALID,360,VALID,0.301562,
2008-06-19, 01:42:04,VALID,1009.64,VALID,0,VALID,95.0169,VALID,0.105969,VALID,23.1272,VALID,360,VALID,0.155078,
2008-06-19, 01:43:04,VALID,1009.62,VALID,0,VALID,95.0169,VALID,0.105969,VALID,23.1077,VALID,360,VALID,0.257422,
2008-06-19, 01:44:04,VALID,1009.63,VALID,0,VALID,95.055,VALID,0.105969,VALID,23.0688,VALID,360,VALID,0.0117188,
2008-06-19, 01:45:04,VALID,1009.61,VALID,0,VALID,95.055,VALID,0.105969,VALID,23.0688,VALID,52,VALID,0.340625,
2008-06-19, 01:46:04,VALID,1009.59,VALID,0,VALID,95.1008,VALID,0.105969,VALID,23.0705,VALID,41,VALID,0.108594,
2008-06-19, 01:47:04,VALID,1009.61,VALID,0,VALID,95.1008,VALID,0.105969,VALID,23.0493,VALID,77,VALID,0.601172,
2008-06-19, 01:48:04,VALID,1009.61,VALID,0,VALID,95.0855,VALID,0.105969,VALID,23.0705,VALID,16,VALID,0.33125,
2008-06-19, 01:49:04,VALID,1009.63,VALID,0,VALID,95.116,VALID,0.105969,VALID,23.0493,VALID,71,VALID,0.594922,
2008-06-19, 01:50:04,VALID,1009.67,VALID,0,VALID,95.1542,VALID,0.105969,VALID,23.0493,VALID,86,VALID,0.478125,
2008-06-19, 01:51:04,VALID,1009.71,VALID,0,VALID,95.1847,VALID,0.105969,VALID,23.0688,VALID,86,VALID,0.510938,
2008-06-19, 01:52:04,VALID,1009.73,VALID,0,VALID,95.1923,VALID,0.105969,VALID,23.0883,VALID,80,VALID,0.226563,
2008-06-19, 01:53:04,VALID,1009.75,VALID,0,VALID,95.1618,VALID,0.105969,VALID,23.09,VALID,66,VALID,0.633594,
2008-06-19, 01:54:04,VALID,1009.74,VALID,0,VALID,95.1465,VALID,0.105969,VALID,23.0883,VALID,101,VALID,0.358984,
2008-06-19, 01:55:04,VALID,1009.72,VALID,0,VALID,95.1694,VALID,0.105969,VALID,23.1077,VALID,101,VALID,0.110156,
2008-06-19, 01:56:04,VALID,1009.73,VALID,0,VALID,95.1694,VALID,0.105969,VALID,23.1077,VALID,103,VALID,0.420312,
2008-06-19, 01:57:04,VALID,1009.7,VALID,0,VALID,95.1465,VALID,0.105969,VALID,23.1077,VALID,104,VALID,0.521094,
2008-06-19, 01:58:04,VALID,1009.66,VALID,0,VALID,95.1465,VALID,0.105969,VALID,23.1679,VALID,104,VALID,0.239844,
2008-06-19, 01:59:04,VALID,1009.65,VALID,0,VALID,95.1694,VALID,0.105969,VALID,23.1874,VALID,142,VALID,0.407813,
2008-06-19, 02:00:04,VALID,1009.64,VALID,0,VALID,95.1618,VALID,0.105969,VALID,23.1662,VALID,144,VALID,0.346875,
2008-06-19, 02:01:04,VALID,1009.64,VALID,0,VALID,95.1465,VALID,0.105969,VALID,23.1857,VALID,144,VALID,0.335938,
2008-06-19, 02:02:04,VALID,1009.6,VALID,0,VALID,95.1847,VALID,0.105969,VALID,23.1857,VALID,138,VALID,0.4,
2008-06-19, 02:03:04,VALID,1009.59,VALID,0,VALID,95.1618,VALID,0.105969,VALID,23.2264,VALID,98,VALID,0.373047,
2008-06-19, 02:04:04,VALID,1009.59,VALID,0,VALID,95.1389,VALID,0.105969,VALID,23.2264,VALID,48,VALID,0.539063,
2008-06-19, 02:05:04,VALID,1009.58,VALID,0,VALID,95.0779,VALID,0.105969,VALID,23.1857,VALID,48,VALID,0.457031,
2008-06-19, 02:06:04,VALID,1009.59,VALID,0,VALID,95.0474,VALID,0.105969,VALID,23.2264,VALID,48,VALID,0.307031,
2008-06-19, 02:07:04,VALID,1009.6,VALID,0,VALID,95.0398,VALID,0.105969,VALID,23.2264,VALID,74,VALID,0.483203,
2008-06-19, 02:08:04,VALID,1009.59,VALID,0,VALID,95.0245,VALID,0.105969,VALID,23.1874,VALID,102,VALID,0.620313,
2008-06-19, 02:09:04,VALID,1009.61,VALID,0,VALID,95.0245,VALID,0.105969,VALID,23.2246,VALID,105,VALID,0.453125,
2008-06-19, 02:10:04,VALID,1009.63,VALID,0,VALID,95.0169,VALID,0.105969,VALID,23.2246,VALID,107,VALID,0.520312,
2008-06-19, 02:11:04,VALID,1009.63,VALID,0,VALID,94.994,VALID,0.105969,VALID,23.2246,VALID,103,VALID,0.581641,
2008-06-19, 02:12:04,VALID,1009.64,VALID,0,VALID,94.9864,VALID,0.105969,VALID,23.2441,VALID,88,VALID,0.6375,
2008-06-19, 02:13:04,VALID,1009.66,VALID,0,VALID,94.9711,VALID,0.105969,VALID,23.2636,VALID,75,VALID,0.746875,
2008-06-19, 02:14:04,VALID,1009.69,VALID,0,VALID,94.933,VALID,0,VALID,23.2654,VALID,56,VALID,0.572266,
2008-06-19, 02:15:04,VALID,1009.69,VALID,0,VALID,94.8796,VALID,0,VALID,23.2671,VALID,68,VALID,0.866406,
2008-06-19, 02:16:04,VALID,1009.68,VALID,0,VALID,94.811,VALID,0,VALID,23.2459,VALID,68,VALID,0.694922,
2008-06-19, 02:17:04,VALID,1009.72,VALID,0,VALID,94.7805,VALID,0,VALID,23.2459,VALID,64,VALID,0.458203,
2008-06-19, 02:18:04,VALID,1009.7,VALID,0,VALID,94.7881,VALID,0,VALID,23.2459,VALID,77,VALID,0.295312,
2008-06-19, 02:19:04,VALID,1009.72,VALID,0,VALID,94.8568,VALID,0,VALID,23.2654,VALID,98,VALID,0.365625,
2008-06-19, 02:20:04,VALID,1009.72,VALID,0,VALID,94.8796,VALID,0,VALID,23.2654,VALID,125,VALID,0.658984,
2008-06-19, 02:21:04,VALID,1009.73,VALID,0,VALID,94.9254,VALID,0,VALID,23.3061,VALID,152,VALID,0.547266,
2008-06-19, 02:22:04,VALID,1009.71,VALID,0,VALID,94.9559,VALID,0,VALID,23.2848,VALID,179,VALID,0.49375,
2008-06-19, 02:23:04,VALID,1009.7,VALID,0,VALID,94.9864,VALID,0,VALID,23.2848,VALID,196,VALID,0.521094,
2008-06-19, 02:24:04,VALID,1009.73,VALID,0,VALID,94.9788,VALID,0,VALID,23.2848,VALID,203,VALID,0.328906,
2008-06-19, 02:25:04,VALID,1009.73,VALID,0,VALID,95.0169,VALID,0,VALID,23.2848,VALID,206,VALID,0.320703,
2008-06-19, 02:26:04,VALID,1009.72,VALID,0,VALID,95.0093,VALID,0,VALID,23.3433,VALID,210,VALID,0.309766,
2008-06-19, 02:27:04,VALID,1009.76,VALID,0,VALID,94.994,VALID,0,VALID,23.3026,VALID,210,VALID,0.254687,
2008-06-19, 02:28:04,VALID,1009.77,VALID,0,VALID,94.9711,VALID,0,VALID,23.3238,VALID,211,VALID,0.574219,
2008-06-19, 02:29:04,VALID,1009.77,VALID,0,VALID,94.9025,VALID,0,VALID,23.3451,VALID,211,VALID,0.822266,
2008-06-19, 02:30:04,VALID,1009.77,VALID,0,VALID,94.8873,VALID,0,VALID,23.3061,VALID,202,VALID,0.914844,
2008-06-19, 02:31:04,VALID,1009.75,VALID,0,VALID,94.8873,VALID,0,VALID,23.3043,VALID,195,VALID,0.866406,
2008-06-19, 02:32:04,VALID,1009.7,VALID,0,VALID,94.9711,VALID,0,VALID,23.3238,VALID,178,VALID,0.85,
2008-06-19, 02:33:04,VALID,1009.66,VALID,0,VALID,94.9406,VALID,0,VALID,23.3043,VALID,190,VALID,0.671875,
2008-06-19, 02:34:04,VALID,1009.6,VALID,0,VALID,94.9254,VALID,0,VALID,23.3043,VALID,183,VALID,0.303516,
2008-06-19, 02:35:04,VALID,1009.58,VALID,0,VALID,94.933,VALID,0,VALID,23.2848,VALID,183,VALID,0.361328,
2008-06-19, 02:36:04,VALID,1009.56,VALID,0,VALID,94.9406,VALID,0,VALID,23.2654,VALID,183,VALID,0.254687,
2008-06-19, 02:37:04,VALID,1009.55,VALID,0,VALID,94.994,VALID,0,VALID,23.2866,VALID,183,VALID,0.350391,
2008-06-19, 02:38:04,VALID,1009.56,VALID,0,VALID,95.0474,VALID,0,VALID,23.2848,VALID,209,VALID,0.928516,
2008-06-19, 02:39:04,VALID,1009.57,VALID,0,VALID,95.0093,VALID,0,VALID,23.2654,VALID,208,VALID,0.934375,
2008-06-19, 02:40:04,VALID,1009.58,VALID,0,VALID,95.0321,VALID,0,VALID,23.2654,VALID,201,VALID,1.05234,
2008-06-19, 02:41:04,VALID,1009.59,VALID,0,VALID,95.0321,VALID,0,VALID,23.2654,VALID,198,VALID,1.04531,
2008-06-19, 02:42:04,VALID,1009.6,VALID,0,VALID,95.0398,VALID,0,VALID,23.2459,VALID,198,VALID,0.863281,
2008-06-19, 02:43:04,VALID,1009.58,VALID,0,VALID,95.055,VALID,0,VALID,23.2848,VALID,176,VALID,0.778906,
2008-06-19, 02:44:04,VALID,1009.54,VALID,0,VALID,95.0703,VALID,0,VALID,23.2848,VALID,181,VALID,0.424609,
2008-06-19, 02:45:04,VALID,1009.55,VALID,0,VALID,95.0703,VALID,0,VALID,23.2848,VALID,175,VALID,0.903516,
2008-06-19, 02:46:04,VALID,1009.52,VALID,0,VALID,95.0703,VALID,0,VALID,23.2848,VALID,184,VALID,0.476563,
2008-06-19, 02:47:04,VALID,1009.54,VALID,0,VALID,95.055,VALID,0,VALID,23.3043,VALID,222,VALID,0.538672,
2008-06-19, 02:48:04,VALID,1009.55,VALID,0,VALID,94.994,VALID,0,VALID,23.2848,VALID,206,VALID,0.860937,
2008-06-19, 02:49:04,VALID,1009.55,VALID,0,VALID,94.8644,VALID,0,VALID,23.2848,VALID,183,VALID,1.07539,
2008-06-19, 02:50:04,VALID,1009.55,VALID,0,VALID,94.75,VALID,0,VALID,23.2848,VALID,185,VALID,0.714844,
2008-06-19, 02:51:04,VALID,1009.51,VALID,0,VALID,94.7271,VALID,0,VALID,23.3043,VALID,179,VALID,0.603125,
2008-06-19, 02:52:04,VALID,1009.49,VALID,0,VALID,94.7042,VALID,0,VALID,23.2848,VALID,194,VALID,0.439844,
2008-06-19, 02:53:04,VALID,1009.5,VALID,0,VALID,94.7042,VALID,0,VALID,23.2848,VALID,197,VALID,0.311328,
2008-06-19, 02:54:04,VALID,1009.51,VALID,0,VALID,94.7424,VALID,0,VALID,23.2848,VALID,229,VALID,0.119531,
2008-06-19, 02:55:04,VALID,1009.5,VALID,0,VALID,94.7424,VALID,0,VALID,23.3061,VALID,229,VALID,0.0625,
2008-06-19, 02:56:04,VALID,1009.52,VALID,0,VALID,94.7195,VALID,0,VALID,23.2866,VALID,229,VALID,0.245703,
2008-06-19, 02:57:04,VALID,1009.55,VALID,0,VALID,94.7271,VALID,0,VALID,23.2866,VALID,229,VALID,0.127344,
2008-06-19, 02:58:04,VALID,1009.57,VALID,0,VALID,94.75,VALID,0,VALID,23.2866,VALID,229,VALID,0.117969,
2008-06-19, 02:59:04,VALID,1009.59,VALID,0,VALID,94.7347,VALID,0,VALID,23.2866,VALID,184,VALID,0.509766,
2008-06-19, 03:00:04,VALID,1009.57,VALID,0,VALID,94.7119,VALID,0,VALID,23.3061,VALID,182,VALID,0.753906,
2008-06-19, 03:01:04,VALID,1009.59,VALID,0,VALID,94.6051,VALID,0,VALID,23.2459,VALID,171,VALID,0.735547,
2008-06-19, 03:02:04,VALID,1009.56,VALID,0,VALID,94.5593,VALID,0,VALID,23.2282,VALID,166,VALID,0.588281,
2008-06-19, 03:03:04,VALID,1009.52,VALID,0,VALID,94.5593,VALID,0,VALID,23.2069,VALID,164,VALID,0.414844,
2008-06-19, 03:04:04,VALID,1009.5,VALID,0,VALID,94.5822,VALID,0,VALID,23.1874,VALID,164,VALID,0.307813,
2008-06-19, 03:05:04,VALID,1009.46,VALID,0,VALID,94.567,VALID,0,VALID,23.1874,VALID,165,VALID,0.258203,
2008-06-19, 03:06:04,VALID,1009.44,VALID,0,VALID,94.6127,VALID,0,VALID,23.2087,VALID,165,VALID,0.285547,
2008-06-19, 03:07:04,VALID,1009.45,VALID,0,VALID,94.6508,VALID,0,VALID,23.1874,VALID,192,VALID,0.549609,
2008-06-19, 03:08:04,VALID,1009.5,VALID,0,VALID,94.7042,VALID,0.105969,VALID,23.2264,VALID,210,VALID,0.624609,
2008-06-19, 03:09:04,VALID,1009.49,VALID,0,VALID,94.7805,VALID,0,VALID,23.2069,VALID,220,VALID,0.294922,
2008-06-19, 03:10:04,VALID,1009.51,VALID,0,VALID,94.7271,VALID,0,VALID,23.1874,VALID,220,VALID,0.264844,
2008-06-19, 03:11:04,VALID,1009.51,VALID,0,VALID,94.7271,VALID,0,VALID,23.2069,VALID,219,VALID,0.389453,
2008-06-19, 03:12:04,VALID,1009.5,VALID,0,VALID,94.7805,VALID,0,VALID,23.2264,VALID,230,VALID,0.223438,
2008-06-19, 03:13:04,VALID,1009.5,VALID,0,VALID,94.7424,VALID,0,VALID,23.2264,VALID,264,VALID,0.180859,
2008-06-19, 03:14:04,VALID,1009.52,VALID,0,VALID,94.7042,VALID,0,VALID,23.2264,VALID,265,VALID,0,
2008-06-19, 03:15:04,VALID,1009.51,VALID,0,VALID,94.6966,VALID,0,VALID,23.2264,VALID,265,VALID,0,
2008-06-19, 03:16:04,VALID,1009.49,VALID,0,VALID,94.6508,VALID,0,VALID,23.2264,VALID,264,VALID,0.128906,
2008-06-19, 03:17:04,VALID,1009.51,VALID,0,VALID,94.6051,VALID,0,VALID,23.2264,VALID,130,VALID,0.469922,
2008-06-19, 03:18:04,VALID,1009.54,VALID,0,VALID,94.5822,VALID,0.105969,VALID,23.2459,VALID,135,VALID,0.500781,
2008-06-19, 03:19:04,VALID,1009.53,VALID,0,VALID,94.5593,VALID,0,VALID,23.2264,VALID,133,VALID,0.494922,
2008-06-19, 03:20:04,VALID,1009.55,VALID,0,VALID,94.5975,VALID,0,VALID,23.2654,VALID,106,VALID,0.566016,
2008-06-19, 03:21:04,VALID,1009.52,VALID,0,VALID,94.5822,VALID,0,VALID,23.2654,VALID,91,VALID,0.588281,
2008-06-19, 03:22:04,VALID,1009.49,VALID,0,VALID,94.5898,VALID,0,VALID,23.2441,VALID,55,VALID,0.583203,
2008-06-19, 03:23:04,VALID,1009.47,VALID,0,VALID,94.5365,VALID,0,VALID,23.2459,VALID,52,VALID,0.490625,
2008-06-19, 03:24:04,VALID,1009.44,VALID,0,VALID,94.567,VALID,0,VALID,23.2264,VALID,50,VALID,0.419922,
2008-06-19, 03:25:04,VALID,1009.41,VALID,0,VALID,94.5212,VALID,0,VALID,23.1874,VALID,50,VALID,0.319141,
2008-06-19, 03:26:04,VALID,1009.39,VALID,0,VALID,94.5822,VALID,0,VALID,23.1679,VALID,50,VALID,0.232812,
2008-06-19, 03:27:04,VALID,1009.36,VALID,0,VALID,94.6508,VALID,0,VALID,23.1485,VALID,50,VALID,0.278906,
2008-06-19, 03:28:04,VALID,1009.31,VALID,0,VALID,94.7195,VALID,0,VALID,23.129,VALID,50,VALID,0.261719,
2008-06-19, 03:29:04,VALID,1009.31,VALID,0,VALID,94.7957,VALID,0,VALID,23.129,VALID,50,VALID,0,
2008-06-19, 03:30:04,VALID,1009.28,VALID,0,VALID,94.872,VALID,0,VALID,23.1485,VALID,50,VALID,0.124219,
2008-06-19, 03:31:04,VALID,1009.25,VALID,0,VALID,94.9101,VALID,0,VALID,23.129,VALID,78,VALID,0.414063,
2008-06-19, 03:32:04,VALID,1009.22,VALID,0,VALID,94.9254,VALID,0,VALID,23.129,VALID,159,VALID,0.599609,
2008-06-19, 03:33:04,VALID,1009.21,VALID,0,VALID,94.9406,VALID,0,VALID,23.129,VALID,160,VALID,0.757813,
2008-06-19, 03:34:04,VALID,1009.2,VALID,0,VALID,94.8796,VALID,0,VALID,23.09,VALID,160,VALID,0.863672,
2008-06-19, 03:35:04,VALID,1009.22,VALID,0,VALID,94.8339,VALID,0,VALID,23.09,VALID,149,VALID,0.891016,
2008-06-19, 03:36:04,VALID,1009.27,VALID,0,VALID,94.8644,VALID,0,VALID,23.0705,VALID,151,VALID,0.599609,
2008-06-19, 03:37:04,VALID,1009.27,VALID,0,VALID,94.8796,VALID,0,VALID,23.0705,VALID,165,VALID,0.688672,
2008-06-19, 03:38:04,VALID,1009.29,VALID,0,VALID,94.872,VALID,0,VALID,23.0316,VALID,165,VALID,0.659766,
2008-06-19, 03:39:04,VALID,1009.3,VALID,0,VALID,94.8949,VALID,0,VALID,23.0121,VALID,163,VALID,0.166797,
2008-06-19, 03:40:04,VALID,1009.32,VALID,0,VALID,94.9711,VALID,0,VALID,23.0121,VALID,47,VALID,0.511719,
2008-06-19, 03:41:05,VALID,1009.36,VALID,0,VALID,95.0245,VALID,0.105969,VALID,23.0316,VALID,26,VALID,0.605469,